H1 CPF 2 NER 2024 1 31 9 031 01 glonass128 H2 1106401 9128 37867 2024 1 31 0 0 0 2024 2 3 23 45 0 900 1 1 0 0 0 1 H9 10 0 60340 0.00000 0 -7748254.594 14395723.436 19606348.077 10 0 60340 900.00000 0 -9704718.640 15599625.144 17713812.258 10 0 60340 1800.00000 0 -11356133.236 16804827.834 15477740.334 10 0 60340 2700.00000 0 -12681101.661 17951301.307 12941217.324 10 0 60340 3600.00000 0 -13671075.760 18977889.228 10153244.529 10 0 60340 4500.00000 0 -14330483.193 19824944.521 7167808.993 10 0 60340 5400.00000 0 -14676315.590 20436929.103 4042847.701 10 0 60340 6300.00000 0 -14737193.137 20764867.359 839125.549 10 0 60340 7200.00000 0 -14551943.577 20768547.791 -2380951.277 10 0 60340 8100.00000 0 -14167754.800 20418377.056 -5554562.843 10 0 60340 9000.00000 0 -13637979.060 19696804.762 -8619718.706 10 0 60340 9900.00000 0 -13019682.556 18599255.370 -11516490.592 10 0 60340 10800.00000 0 -12371045.767 17134524.612 -14188208.140 10 0 60340 11700.00000 0 -11748726.878 15324620.973 -16582591.850 10 0 60340 12600.00000 0 -11205302.683 13204056.971 -18652798.588 10 0 60340 13500.00000 0 -10786898.041 10818619.010 -20358357.035 10 0 60340 14400.00000 0 -10531106.802 8223667.339 -21665973.055 10 0 60340 15300.00000 0 -10465294.230 5482038.126 -22550188.006 10 0 60340 16200.00000 0 -10605354.051 2661636.807 -22993876.578 10 0 60340 17100.00000 0 -10954973.200 -167175.054 -22988574.469 10 0 60340 18000.00000 0 -11505435.040 -2934288.562 -22534630.159 10 0 60340 18900.00000 0 -12235968.266 -5572537.573 -21641178.908 10 0 60340 19800.00000 0 -13114625.103 -8020257.093 -20325941.050 10 0 60340 20700.00000 0 -14099649.645 -10223603.295 -18614850.286 10 0 60340 21600.00000 0 -15141276.382 -12138539.298 -16541521.181 10 0 60340 22500.00000 0 -16183880.891 -13732405.664 -14146568.177 10 0 60340 23400.00000 0 -17168390.194 -14985012.639 -11476791.306 10 0 60340 24300.00000 0 -18034849.812 -15889211.812 -8584246.161 10 0 60340 25200.00000 0 -18725038.630 -16450926.947 -5525217.596 10 0 60340 26100.00000 0 -19185021.389 -16688646.526 -2359118.268 10 0 60340 27000.00000 0 -19367531.945 -16632402.907 852665.985 10 0 60340 27900.00000 0 -19234088.250 -16322284.094 4047961.333 10 0 60340 28800.00000 0 -18756751.691 -15806543.062 7164998.998 10 0 60340 29700.00000 0 -17919458.726 -15139385.586 10143593.932 10 0 60340 30600.00000 0 -16718870.672 -14378530.134 12926287.602 10 0 60340 31500.00000 0 -15164707.445 -13582641.956 15459434.491 10 0 60340 32400.00000 0 -13279552.189 -12808747.986 17694213.393 10 0 60340 33300.00000 0 -11098135.026 -12109739.265 19587546.174 10 0 60340 34200.00000 0 -8666125.132 -11532063.588 21102908.479 10 0 60340 35100.00000 0 -6038479.811 -11113702.983 22211018.770 10 0 60340 36000.00000 0 -3277416.848 -10882518.945 22890394.126 10 0 60340 36900.00000 0 -450091.388 -10855033.510 23127763.188 10 0 60340 37800.00000 0 2373929.620 -11035696.720 22918328.807 10 0 60340 38700.00000 0 5125294.121 -11416671.615 22265875.100 10 0 60340 39600.00000 0 7737486.995 -11978147.067 21182715.835 10 0 60340 40500.00000 0 10149341.377 -12689167.473 19689483.499 10 0 60340 41400.00000 0 12307336.885 -13508947.188 17814760.850 10 0 60340 42300.00000 0 14167590.232 -14388617.429 15594559.456 10 0 60340 43200.00000 0 15697455.413 -15273335.110 13071652.531 10 0 60340 44100.00000 0 16876665.958 -16104667.240 10294772.266 10 0 60340 45000.00000 0 17697970.027 -16823152.109 7317684.878 10 0 60340 45900.00000 0 18167229.852 -17370929.858 4198159.541 10 0 60340 46800.00000 0 18302979.368 -17694330.993 996850.069 10 0 60340 47700.00000 0 18135456.846 -17746311.903 -2223889.076 10 0 60340 48600.00000 0 17705151.998 -17488631.992 -5401228.932 10 0 60340 49500.00000 0 17060928.283 -16893677.204 -8473109.127 10 0 60340 50400.00000 0 16257800.033 -15945849.350 -11379471.723 10 0 60340 51300.00000 0 15354459.458 -14642459.000 -14063459.424 10 0 60340 52200.00000 0 14410660.003 -12994081.074 -16472552.232 10 0 60340 53100.00000 0 13484569.110 -11024355.590 -18559617.813 10 0 60340 54000.00000 0 12630204.976 -8769240.258 -20283852.868 10 0 60340 54900.00000 0 11895068.226 -6275745.504 -21611595.308 10 0 60340 55800.00000 0 11318070.781 -3600205.167 -22516990.117 10 0 60340 56700.00000 0 10927850.954 -806156.102 -22982495.306 10 0 60340 57600.00000 0 10741546.650 2038083.212 -22999218.083 10 0 60340 58500.00000 0 10764078.340 4862032.333 -22567075.285 10 0 60340 59400.00000 0 10987971.039 7595755.911 -21694776.051 10 0 60340 60300.00000 0 11393721.106 10172544.147 -20399628.576 10 0 60340 61200.00000 0 11950690.097 12531454.331 -18707176.496 10 0 60340 62100.00000 0 12618485.416 14619607.773 -16650673.934 10 0 60340 63000.00000 0 13348766.900 16394147.518 -14270411.386 10 0 60340 63900.00000 0 14087400.755 17823777.068 -11612907.513 10 0 60340 64800.00000 0 14776867.980 18889818.670 -8729984.256 10 0 60340 65700.00000 0 15358824.387 19586750.185 -5677744.743 10 0 60340 66600.00000 0 15776703.545 19922201.735 -2515474.973 10 0 60340 67500.00000 0 15978253.024 19916415.836 695508.732 10 0 60340 68400.00000 0 15917897.799 19601197.017 3893043.905 10 0 60340 69300.00000 0 15558832.568 19018397.728 7015315.080 10 0 60340 70200.00000 0 14874756.577 18218006.037 10002033.614 10 0 60340 71100.00000 0 13851179.748 17255916.417 12795582.646 10 0 60340 72000.00000 0 12486246.787 16191477.263 15342106.748 10 0 60340 72900.00000 0 10791045.837 15084917.174 17592527.256 10 0 60340 73800.00000 0 8789389.132 13994756.347 19503465.890 10 0 60340 74700.00000 0 6517074.432 12975309.463 21038061.030 10 0 60340 75600.00000 0 4020656.738 12074382.325 22166662.976 10 0 60340 76500.00000 0 1355779.261 11331256.430 22867396.480 10 0 60340 77400.00000 0 -1414869.779 10775043.963 23126580.862 10 0 60340 78300.00000 0 -4223893.032 10423480.823 22939000.162 10 0 60340 79200.00000 0 -7001719.217 10282207.785 22308017.912 10 0 60340 80100.00000 0 -9679235.868 10344570.401 21245533.364 10 0 60340 81000.00000 0 -12190413.460 10591947.342 19771778.373 10 0 60340 81900.00000 0 -14474814.322 10994595.513 17914956.636 10 0 60340 82800.00000 0 -16479883.498 11512978.935 15710729.657 10 0 60340 83700.00000 0 -18162926.757 12099528.219 13201556.569 10 0 60340 84600.00000 0 -19492692.794 12700759.028 10435897.887 10 0 60340 85500.00000 0 -20450492.261 13259662.119 7467296.261 10 0 60341 0.00000 0 -21030804.855 13718265.158 4353350.487 10 0 60341 900.00000 0 -21241347.079 14020258.382 1154599.875 10 0 60341 1800.00000 0 -21102594.985 14113571.429 -2066655.415 10 0 60341 2700.00000 0 -20646781.209 13952791.180 -5247580.188 10 0 60341 3600.00000 0 -19916406.563 13501314.729 -8326046.857 10 0 60341 4500.00000 0 -18962329.007 12733143.294 -11241870.438 10 0 60341 5400.00000 0 -17841511.140 11634237.514 -13938009.167 10 0 60341 6300.00000 0 -16614522.693 10203373.413 -16361704.808 10 0 60341 7200.00000 0 -15342905.551 8452459.893 -18465537.839 10 0 60341 8100.00000 0 -14086514.984 6406302.114 -20208374.681 10 0 60341 9000.00000 0 -12900951.837 4101819.252 -21556186.653 10 0 60341 9900.00000 0 -11835196.315 1586749.035 -22482723.364 10 0 60341 10800.00000 0 -10929544.924 -1082106.316 -22970026.768 10 0 60341 11700.00000 0 -10213938.532 -3841018.323 -23008775.822 10 0 60341 12600.00000 0 -9706752.148 -6621763.808 -22598455.591 10 0 60341 13500.00000 0 -9414096.595 -9354246.707 -21747348.583 10 0 60341 14400.00000 0 -9329659.865 -11969199.341 -20472349.987 10 0 60341 15300.00000 0 -9435092.472 -14400849.526 -18798612.160 10 0 60341 16200.00000 0 -9700917.794 -16589441.988 -16759027.274 10 0 60341 17100.00000 0 -10087925.991 -18483509.434 -14393560.117 10 0 60341 18000.00000 0 -10548989.830 -20041799.807 -11748446.013 10 0 60341 18900.00000 0 -11031223.213 -21234781.408 -8875271.170 10 0 60341 19800.00000 0 -11478389.344 -22045665.760 -5829954.811 10 0 60341 20700.00000 0 -11833455.567 -22470908.691 -2671654.039 10 0 60341 21600.00000 0 -12041186.549 -22520172.066 538386.604 10 0 60341 22500.00000 0 -12050666.637 -22215751.115 3738018.338 10 0 60341 23400.00000 0 -11817645.918 -21591494.267 6865381.381 10 0 60341 24300.00000 0 -11306612.510 -20691263.061 9860085.919 10 0 60341 25200.00000 0 -10492505.505 -19566998.141 12664359.225 10 0 60341 26100.00000 0 -9361998.126 -18276472.887 15224138.408 10 0 60341 27000.00000 0 -7914298.567 -16880828.395 17490089.723 10 0 60341 27900.00000 0 -6161435.665 -15441991.676 19418536.972 10 0 60341 28800.00000 0 -4128017.444 -14020083.212 20972283.289 10 0 60341 29700.00000 0 -1850471.731 -12670919.867 22121312.536 10 0 60341 30600.00000 0 624201.332 -11443715.037 22843358.530 10 0 60341 31500.00000 0 3240115.489 -10379069.845 23124332.291 10 0 60341 32400.00000 0 5934556.428 -9507337.450 22958599.688 10 0 60341 33300.00000 0 8640329.783 -8847427.682 22349103.917 10 0 60341 34200.00000 0 11288305.205 -8406101.690 21307329.576 10 0 60341 35100.00000 0 13810054.199 -8177786.667 19853107.382 10 0 60341 36000.00000 0 16140474.978 -8144919.784 18014261.097 10 0 60341 36900.00000 0 18220297.057 -8278808.901 15826100.907 10 0 60341 37800.00000 0 19998362.336 -8540976.197 13330770.233 10 0 60341 38700.00000 0 21433587.483 -8884930.534 10576455.901 10 0 60341 39600.00000 0 22496524.596 -9258295.898 7616474.588 10 0 60341 40500.00000 0 23170453.101 -9605207.445 4508251.394 10 0 60341 41400.00000 0 23451954.790 -9868874.442 1312209.195 10 0 60341 42300.00000 0 23350945.436 -9994201.149 -1909409.957 10 0 60341 43200.00000 0 22890159.390 -9930353.195 -5093767.972 10 0 60341 44100.00000 0 22104107.111 -9633158.301 -8178673.366 10 0 60341 45000.00000 0 21037548.546 -9067236.562 -11103817.270 10 0 60341 45900.00000 0 19743546.596 -8207766.572 -13811976.368 10 0 60341 46800.00000 0 18281183.520 -7041809.100 -16250156.805 10 0 60341 47700.00000 0 16713038.141 -5569129.075 -18370654.149 10 0 60341 48600.00000 0 15102532.328 -3802478.487 -20132006.463 10 0 60341 49500.00000 0 13511260.973 -1767326.286 -21499820.028 10 0 60341 50400.00000 0 11996420.278 498954.388 -22447450.253 10 0 60341 51300.00000 0 10608444.578 2948407.726 -22956523.825 10 0 60341 52200.00000 0 9388952.439 5524269.551 -23017291.847 10 0 60341 53100.00000 0 8369088.908 8163118.937 -22628807.611 10 0 60341 54000.00000 0 7568333.114 10797315.701 -21798926.614 10 0 60341 54900.00000 0 6993819.967 13357620.482 -20544130.278 10 0 60341 55800.00000 0 6640202.195 15775886.683 -18889178.579 10 0 60341 56700.00000 0 6490055.676 17987711.173 -16866600.292 10 0 60341 57600.00000 0 6514807.700 19934933.019 -14516032.742 10 0 60341 58500.00000 0 6676145.744 21567876.564 -11883425.858 10 0 60341 59400.00000 0 6927844.215 22847246.649 -9020127.768 10 0 60341 60300.00000 0 7217929.448 23745598.965 -5981871.204 10 0 60341 61200.00000 0 7491089.610 24248326.777 -2827681.588 10 0 60341 62100.00000 0 7691226.560 24354125.851 381271.251 10 0 60341 63000.00000 0 7764041.626 24074921.270 3582855.208 10 0 60341 63900.00000 0 7659546.557 23435262.155 6715169.152 10 0 60341 64800.00000 0 7334394.832 22471212.115 9717724.970 10 0 60341 65700.00000 0 6753936.554 21228783.618 12532596.781 10 0 60341 66600.00000 0 5893912.074 19761982.718 15105516.741 10 0 60341 67500.00000 0 4741714.644 18130545.896 17386898.313 10 0 60341 68400.00000 0 3297170.199 16397462.661 19332769.422 10 0 60341 69300.00000 0 1572802.007 14626385.716 20905599.739 10 0 60341 70200.00000 0 -406431.291 12879034.493 22075008.194 10 0 60341 71100.00000 0 -2603914.640 11212697.796 22818338.854 10 0 60341 72000.00000 0 -4972642.246 9677937.121 23121095.278 10 0 60341 72900.00000 0 -7456920.203 8316584.107 22977225.581 10 0 60341 73800.00000 0 -9994438.729 7160113.893 22389252.598 10 0 60341 74700.00000 0 -12518631.525 6228461.258 21368245.739 10 0 60341 75600.00000 0 -14961227.747 5529328.802 19933633.521 10 0 60341 76500.00000 0 -17254893.621 5058016.805 18112858.191 10 0 60341 77400.00000 0 -19335856.150 4797783.244 15940876.539 10 0 60341 78300.00000 0 -21146401.070 4720720.788 13459513.773 10 0 60341 79200.00000 0 -22637141.244 4789116.012 10716680.186 10 0 60341 80100.00000 0 -23768960.032 4957235.634 7765463.418 10 0 60341 81000.00000 0 -24514546.741 5173465.984 4663111.976 10 0 60341 81900.00000 0 -24859457.499 5382716.246 1469928.533 10 0 60341 82800.00000 0 -24802654.379 5528983.740 -1751905.842 10 0 60341 83700.00000 0 -24356497.450 5557971.656 -4939553.213 10 0 60341 84600.00000 0 -23546187.764 5419646.340 -8030761.110 10 0 60341 85500.00000 0 -22408683.039 5070623.017 -10965099.514 10 0 60342 0.00000 0 -20991131.034 4476275.643 -13685165.868 10 0 60342 900.00000 0 -19348885.842 3612477.629 -16137733.469 10 0 60342 1800.00000 0 -17543193.629 2466897.232 -18274814.686 10 0 60342 2700.00000 0 -15638644.397 1039788.811 -20054620.803 10 0 60342 3600.00000 0 -13700500.971 -655755.097 -21442394.202 10 0 60342 4500.00000 0 -11792019.142 -2594103.272 -22411096.760 10 0 60342 5400.00000 0 -9971873.787 -4737924.927 -22941940.078 10 0 60342 6300.00000 0 -8291800.648 -7039533.053 -23024747.119 10 0 60342 7200.00000 0 -6794553.629 -9442674.771 -22658138.675 10 0 60342 8100.00000 0 -5512263.257 -11884692.408 -21849542.116 10 0 60342 9000.00000 0 -4465264.108 -14298963.326 -20615023.640 10 0 60342 9900.00000 0 -3661438.474 -16617514.985 -18978949.103 10 0 60342 10800.00000 0 -3096101.023 -18773704.790 -16973481.926 10 0 60342 11700.00000 0 -2752425.969 -20704852.125 -14637929.852 10 0 60342 12600.00000 0 -2602395.188 -22354712.572 -12017955.209 10 0 60342 13500.00000 0 -2608223.779 -23675691.771 -9164665.808 10 0 60342 14400.00000 0 -2724199.759 -24630707.829 -6133605.657 10 0 60342 15300.00000 0 -2898857.654 -25194626.595 -2983666.311 10 0 60342 16200.00000 0 -3077392.373 -25355212.368 224059.251 10 0 60342 17100.00000 0 -3204210.461 -25113557.107 3427457.685 10 0 60342 18000.00000 0 -3225510.902 -24483973.017 6564588.575 10 0 60342 18900.00000 0 -3091787.179 -23493355.513 9574867.555 10 0 60342 19800.00000 0 -2760146.357 -22180045.143 12400217.624 10 0 60342 20700.00000 0 -2196349.013 -20592237.267 14986167.990 10 0 60342 21600.00000 0 -1376485.880 -18786006.238 17282881.251 10 0 60342 22500.00000 0 -288222.112 -16823025.969 19246091.276 10 0 60342 23400.00000 0 1068442.101 -14768080.527 20837935.904 10 0 60342 24300.00000 0 2680926.320 -12686466.390 22027670.538 10 0 60342 25200.00000 0 4524351.028 -10641391.940 22792250.627 10 0 60342 26100.00000 0 6562335.108 -8691479.722 23116773.081 10 0 60342 27000.00000 0 8748278.873 -6888472.753 22994768.757 10 0 60342 27900.00000 0 11027082.405 -5275238.134 22428340.281 10 0 60342 28800.00000 0 13337231.201 -3884149.481 21428141.706 10 0 60342 29700.00000 0 15613165.970 -2735914.829 20013198.848 10 0 60342 30600.00000 0 17787841.319 -1838898.875 18210571.610 10 0 60342 31500.00000 0 19795369.493 -1188968.784 16054862.237 10 0 60342 32400.00000 0 21573640.837 -769871.405 13587576.236 10 0 60342 33300.00000 0 23066812.486 -554127.927 10856345.544 10 0 60342 34200.00000 0 24227560.946 -504410.271 7914026.591 10 0 60342 35100.00000 0 25019003.003 -575342.932 4817688.782 10 0 60342 36000.00000 0 25416202.280 -715655.372 1627511.795 10 0 60342 36900.00000 0 25407195.442 -870594.377 -1594387.299 10 0 60342 37800.00000 0 24993492.004 -984493.734 -4785173.864 10 0 60342 38700.00000 0 24190023.887 -1003390.943 -7882537.592 10 0 60342 39600.00000 0 23024544.549 -877577.693 -10825930.361 10 0 60342 40500.00000 0 21536501.378 -563973.080 -13557773.667 10 0 60342 41400.00000 0 19775428.168 -28215.614 -16024609.533 10 0 60342 42300.00000 0 17798925.587 753617.954 -18178169.865 10 0 60342 43200.00000 0 15670315.708 1793742.879 -19976341.070 10 0 60342 44100.00000 0 13456070.916 3091902.003 -21384003.204 10 0 60342 45000.00000 0 11223127.302 4635140.846 -22373725.862 10 0 60342 45900.00000 0 9036197.407 6398132.711 -22926306.485 10 0 60342 46800.00000 0 6955196.781 8344040.354 -23031140.473 10 0 60342 47700.00000 0 5032893.462 10425877.428 -22686416.352 10 0 60342 48600.00000 0 3312879.159 12588311.414 -21899133.201 10 0 60342 49500.00000 0 1827946.547 14769830.965 -20684941.459 10 0 60342 50400.00000 0 598939.087 16905185.191 -19067811.919 10 0 60342 51300.00000 0 -365880.927 18927991.331 -17079541.333 10 0 60342 52200.00000 0 -1070922.770 20773400.563 -14759106.179 10 0 60342 53100.00000 0 -1532816.024 22380709.885 -12151879.167 10 0 60342 54000.00000 0 -1779440.440 23695810.911 -9308725.474 10 0 60342 54900.00000 0 -1848481.434 24673374.019 -6284997.817 10 0 60342 55800.00000 0 -1785575.292 25278677.978 -3139451.108 10 0 60342 56700.00000 0 -1642124.821 25489010.557 66901.429 10 0 60342 57600.00000 0 -1472879.300 25294583.999 3271968.200 10 0 60342 58500.00000 0 -1333381.595 24698929.606 6413772.478 10 0 60342 59400.00000 0 -1277390.066 23718757.354 9431636.551 10 0 60342 60300.00000 0 -1354383.113 22383288.449 12267335.079 10 0 60342 61200.00000 0 -1607250.110 20733090.071 14866196.929 10 0 60342 62100.00000 0 -2070264.254 18818461.576 17178136.245 10 0 60342 63000.00000 0 -2767420.910 16697439.127 19158595.017 10 0 60342 63900.00000 0 -3711209.912 14433500.743 20769381.199 10 0 60342 64800.00000 0 -4901872.552 12093065.362 21979388.329 10 0 60342 65700.00000 0 -6327174.494 9742887.396 22765184.601 10 0 60342 66600.00000 0 -7962705.086 7447452.256 23111461.285 10 0 60342 67500.00000 0 -9772692.494 5266478.181 23011332.583 10 0 60342 68400.00000 0 -11711303.364 3252625.546 22466481.052 10 0 60342 69300.00000 0 -13724376.098 1449506.780 21487145.010 10 0 60342 70200.00000 0 -15751519.036 -109921.697 20091946.655 10 0 60342 71100.00000 0 -17728489.592 -1404519.129 18307562.063 10 0 60342 72000.00000 0 -19589758.139 -2425622.979 16168236.917 10 0 60342 72900.00000 0 -21271151.948 -3177185.747 13715154.516 10 0 60342 73800.00000 0 -22712470.071 -3675378.748 10995665.528 10 0 60342 74700.00000 0 -23859959.959 -3947677.715 8062391.950 10 0 60342 75600.00000 0 -24668551.195 -4031466.918 4972220.677 10 0 60342 76500.00000 0 -25103750.749 -3972219.261 1785204.881 10 0 60342 77400.00000 0 -25143117.480 -3821328.414 -1436605.860 10 0 60342 78300.00000 0 -24777250.818 -3633684.726 -4630383.631 10 0 60342 79200.00000 0 -24010248.845 -3465098.489 -7733763.561 10 0 60342 80100.00000 0 -22859613.609 -3369681.575 -10686082.527 10 0 60342 81000.00000 0 -21355605.385 -3397300.995 -13429588.709 10 0 60342 81900.00000 0 -19540071.624 -3591215.380 -15910595.915 10 0 60342 82800.00000 0 -17464799.369 -3985997.792 -18080557.535 10 0 60342 83700.00000 0 -15189460.845 -4605835.995 -19897036.852 10 0 60342 84600.00000 0 -12779239.718 -5463284.835 -21324552.817 10 0 60342 85500.00000 0 -10302239.416 -6558525.584 -22335283.386 10 0 60343 0.00000 0 -7826784.389 -7879164.709 -22909611.850 10 0 60343 900.00000 0 -5418727.876 -9400581.805 -23036505.608 10 0 60343 1800.00000 0 -3138883.690 -11086809.888 -22713719.762 10 0 60343 2700.00000 0 -1040685.813 -12891912.420 -21947823.561 10 0 60343 3600.00000 0 831823.123 -14761796.001 -20754049.753 10 0 60343 4500.00000 0 2445592.675 -16636381.595 -19155971.857 10 0 60343 5400.00000 0 3779689.616 -18452041.350 -17185017.516 10 0 60343 6300.00000 0 4825902.911 -20144197.379 -14879829.379 10 0 60343 7200.00000 0 5588806.764 -21649972.509 -12285487.884 10 0 60343 8100.00000 0 6085283.002 -22910781.495 -9452612.912 10 0 60343 9000.00000 0 6343526.760 -23874754.374 -6436363.245 10 0 60343 9900.00000 0 6401580.947 -24498891.325 -3295354.587 10 0 60343 10800.00000 0 6305464.319 -24750860.365 -90517.933 10 0 60343 11700.00000 0 6106974.352 -24610364.544 3116079.219 10 0 60343 12600.00000 0 5861258.983 -24070023.691 6262426.045 10 0 60343 13500.00000 0 5624260.089 -23135736.046 9287753.568 10 0 60343 14400.00000 0 5450136.065 -21826506.686 12133690.023 10 0 60343 15300.00000 0 5388770.996 -20173751.369 14745365.697 10 0 60343 16200.00000 0 5483473.666 -18220105.694 17072447.842 10 0 60343 17100.00000 0 5768961.380 -16017789.134 19070087.925 10 0 60343 18000.00000 0 6269711.622 -13626591.191 20699765.115 10 0 60343 18900.00000 0 6998749.435 -11111561.689 21930011.925 10 0 60343 19800.00000 0 7956920.749 -8540498.763 22737009.834 10 0 60343 20700.00000 0 9132682.351 -5981336.005 23105044.723 10 0 60343 21600.00000 0 10502418.462 -3499534.162 23026814.079 10 0 60343 22500.00000 0 12031272.785 -1155582.666 22503580.048 10 0 60343 23400.00000 0 13674464.075 997287.776 21545164.599 10 0 60343 24300.00000 0 15379033.595 2915088.437 20169785.433 10 0 60343 25200.00000 0 17085954.938 4564670.295 18403733.685 10 0 60343 26100.00000 0 18732521.279 5924869.917 16280897.119 10 0 60343 27000.00000 0 20254912.946 6987155.131 13842135.229 10 0 60343 27900.00000 0 21590839.687 7755742.277 11134515.568 10 0 60343 28800.00000 0 22682147.668 8247178.442 8210423.620 10 0 60343 29700.00000 0 23477281.503 8489404.479 5126561.434 10 0 60343 30600.00000 0 23933496.433 8520336.606 1942853.149 10 0 60343 31500.00000 0 24018725.232 8386025.307 -1278721.858 10 0 60343 32400.00000 0 23713018.242 8138468.858 -4475345.171 10 0 60343 33300.00000 0 23009492.540 7833174.433 -7584600.148 10 0 60343 34200.00000 0 21914746.953 7526571.351 -10545711.339 10 0 60343 35100.00000 0 20448722.593 7273388.168 -13300756.104 10 0 60343 36000.00000 0 18644012.590 7124107.493 -15795822.282 10 0 60343 36900.00000 0 16544648.814 7122609.407 -17982086.712 10 0 60343 37800.00000 0 14204416.271 7304106.393 -19816791.227 10 0 60343 38700.00000 0 11684766.509 7693459.978 -21264095.082 10 0 60343 39600.00000 0 9052418.877 8303952.550 -22295785.732 10 0 60343 40500.00000 0 6376751.863 9136567.801 -22891833.263 10 0 60343 41400.00000 0 3727095.536 10179810.842 -23040777.473 10 0 60343 42300.00000 0 1170040.008 11410075.481 -22739940.469 10 0 60343 43200.00000 0 -1233126.491 12792542.305 -21995461.608 10 0 60343 44100.00000 0 -3428742.489 14282568.308 -20822155.491 10 0 60343 45000.00000 0 -5372764.482 15827507.807 -19243197.497 10 0 60343 45900.00000 0 -7032342.778 17368886.135 -17289644.900 10 0 60343 46800.00000 0 -8386918.453 18844832.976 -14999804.868 10 0 60343 47700.00000 0 -9428798.693 20192671.655 -12418463.611 10 0 60343 48600.00000 0 -10163190.098 21351554.681 -9595993.464 10 0 60343 49500.00000 0 -10607692.515 22265034.617 -6587356.835 10 0 60343 50400.00000 0 -10791278.527 22883462.712 -3451027.624 10 0 60343 51300.00000 0 -10752805.023 23166115.665 -247851.904 10 0 60343 52200.00000 0 -10539122.340 23082962.903 2960129.652 10 0 60343 53100.00000 0 -10202862.650 22616002.151 6110874.867 10 0 60343 54000.00000 0 -9800001.827 21760109.442 9143526.185 10 0 60343 54900.00000 0 -9387297.622 20523369.875 11999568.048 10 0 60343 55800.00000 0 -9019711.312 18926876.871 14623934.674 10 0 60343 56700.00000 0 -8747919.915 17004009.242 16966048.812 10 0 60343 57600.00000 0 -8616021.751 14799216.382 18980773.620 10 0 60343 58500.00000 0 -8659529.830 12366361.543 20629261.509 10 0 60343 59400.00000 0 -8903735.513 9766690.528 21879685.761 10 0 60343 60300.00000 0 -9362509.841 7066507.932 22707842.661 10 0 60343 61200.00000 0 -10037592.221 4334654.541 23097613.893 10 0 60343 62100.00000 0 -10918396.641 1639887.377 23041281.050 10 0 60343 63000.00000 0 -11982344.807 -951732.182 22539686.250 10 0 60343 63900.00000 0 -13195714.470 -3379336.718 21602235.005 10 0 60343 64800.00000 0 -14514970.242 -5589536.261 20246739.899 10 0 60343 65700.00000 0 -15888524.484 -7538393.674 18499105.958 10 0 60343 66600.00000 0 -17258857.769 -9193010.520 16392861.324 10 0 60343 67500.00000 0 -18564913.048 -10532657.180 13968539.488 10 0 60343 68400.00000 0 -19744665.394 -11549399.163 11272922.257 10 0 60343 69300.00000 0 -20737760.772 -12248191.870 8358155.601 10 0 60343 70200.00000 0 -21488113.172 -12646438.071 5280753.473 10 0 60343 71100.00000 0 -21946349.950 -12773024.890 2100507.536 10 0 60343 72000.00000 0 -22072000.408 -12666879.364 -1120676.548 10 0 60343 72900.00000 0 -21835332.581 -12375102.655 -4319993.397 10 0 60343 73800.00000 0 -21218757.434 -11950761.618 -7434978.076 10 0 60343 74700.00000 0 -20217737.749 -11450431.926 -10404746.186 10 0 60343 75600.00000 0 -18841160.051 -10931598.351 -13171207.463 10 0 60343 76500.00000 0 -17111151.127 -10450024.614 -15680226.725 10 0 60343 77400.00000 0 -15062344.850 -10057206.951 -17882706.870 10 0 60343 78300.00000 0 -12740629.087 -9798022.168 -19735570.451 10 0 60343 79200.00000 0 -10201425.165 -9708672.498 -21202618.662 10 0 60343 80100.00000 0 -7507572.817 -9815016.571 -22255249.487 10 0 60343 81000.00000 0 -4726910.516 -10131358.697 -22873020.145 10 0 60343 81900.00000 0 -1929654.114 -10659748.524 -23044042.655 10 0 60343 82800.00000 0 814314.926 -11389820.624 -22765205.178 10 0 60343 83700.00000 0 3438137.057 -12299180.011 -22042215.753 10 0 60343 84600.00000 0 5880524.934 -13354315.890 -20889468.968 10 0 60343 85500.00000 0 8088069.944 -14512003.207 -19329739.831 99